Flag for Sweden Weather past 2 weeks in Norrköping, Sweden

Now
39 °F

Overcast.


Feels Like: 30 °F
Forecast: 29 / 42 °F
Wind: 18 mph from West

Location: Norrkoping Airport

Current Time: Dec 20, 2014 at 8:47:24 AM

Latest Report: Dec 20, 2014 at 8:20 AM


Visibility: N/A

Pressure: 29.15 "Hg

Humidity: 81%

Dew point: 34 °F

Location of NorrköpingLocation

Historic Weather in Norrköping — Graph

°F

Norrköping temperature yesterday

Maximum temperature yesterday: 45 °F (at 4:20 AM)
Minimum temperature yesterday: 37 °F (at 6:50 PM)
Average temperature yesterday: 41 °F

Past Weeks' High & Low Weather Summary

 TemperatureHumidityPressure
High45 °F (Dec 19, 4:20 AM)100% (Dec 5, 7:50 AM)30.15 "Hg (Dec 5, 7:50 AM)
Low25 °F (Dec 17, 7:20 PM)70% (Dec 10, 6:20 AM)28.77 "Hg (Dec 12, 11:20 PM)
Average37 °F90%29.53 "Hg
* Reported Dec 5 7:20 AM — Dec 20 7:50 AM, Norrköping, Weather by CustomWeather, © 2014

Note: Actual official high and low records may vary slightly from our data, if they occured in-between our weather recording intervals... More about our weather records

Advertising

Norrköping weather history for previous 24 hours

 ConditionsComfort  
Time TempWeatherWind HumidityBarometerVisibility
7:50 AM
Dec 20
39 °FOvercast.18 mph81%29.15 "HgN/A
7:20 AM39 °FMostly cloudy.21 mph81%29.15 "HgN/A
6:50 AM41 °FMostly cloudy.23 mph76%29.15 "HgN/A
6:20 AM41 °FMostly cloudy.21 mph76%29.15 "HgN/A
5:50 AM41 °FOvercast.21 mph76%29.18 "HgN/A
5:20 AM41 °FOvercast.20 mph76%29.18 "HgN/A
4:50 AM41 °FOvercast.20 mph76%29.18 "HgN/A
4:20 AM39 °FOvercast.18 mph81%29.15 "HgN/A
3:50 AM39 °FOvercast.17 mph81%29.18 "HgN/A
3:20 AM39 °FPassing clouds.17 mph81%29.15 "HgN/A
2:50 AM39 °FPassing clouds.20 mph81%29.15 "HgN/A
2:20 AM39 °FPassing clouds.18 mph81%29.15 "HgN/A
1:50 AM39 °FOvercast.20 mph75%29.15 "HgN/A
1:20 AM39 °FOvercast.18 mph81%29.15 "HgN/A
12:50 AM41 °FOvercast.20 mph76%29.15 "HgN/A
12:20 AM39 °FMostly cloudy.20 mph81%29.15 "HgN/A
11:50 PM
Dec 19
41 °FOvercast.22 mph76%29.15 "HgN/A
11:20 PM39 °FOvercast.22 mph81%29.15 "HgN/A
10:50 PM39 °FMostly cloudy.20 mph81%29.15 "HgN/A
10:20 PM39 °FOvercast.20 mph81%29.15 "HgN/A
9:50 PM39 °FPassing clouds.21 mph81%29.15 "HgN/A
9:20 PM39 °FPassing clouds.20 mph81%29.15 "HgN/A
8:50 PM39 °FPassing clouds.21 mph81%29.15 "HgN/A
8:20 PM39 °FPassing clouds.21 mph81%29.15 "HgN/A
7:50 PM37 °FPassing clouds.20 mph87%29.15 "HgN/A
7:20 PM37 °FClear.18 mph87%29.15 "Hg10 mi
6:50 PM37 °FClear.18 mph87%29.15 "Hg10 mi
6:20 PM39 °FClear.16 mph75%29.15 "Hg10 mi
5:50 PM39 °FClear.17 mph75%29.15 "Hg10 mi
5:20 PM39 °FClear.21 mph81%29.15 "Hg10 mi
4:50 PM41 °FPassing clouds.20 mph76%29.15 "HgN/A
4:20 PM39 °FPassing clouds.15 mph81%29.15 "HgN/A
3:50 PM41 °FClear.20 mph76%29.15 "Hg10 mi
3:20 PM41 °FClear.18 mph76%29.15 "Hg10 mi
2:50 PM41 °FSunny.17 mph81%29.15 "Hg10 mi
2:20 PM41 °FPassing clouds.18 mph81%29.15 "HgN/A
1:50 PM43 °FPassing clouds.20 mph76%29.18 "HgN/A
1:20 PM43 °FPassing clouds.20 mph76%29.15 "HgN/A
12:50 PM43 °FScattered clouds.17 mph76%29.18 "HgN/A
12:20 PM43 °FPartly sunny.20 mph81%29.18 "HgN/A
11:50 AM43 °FPartly sunny.22 mph81%29.18 "HgN/A
11:20 AM43 °FPassing clouds.20 mph81%29.18 "HgN/A
10:50 AM43 °FPartly sunny.18 mph81%29.18 "HgN/A
10:20 AM43 °FPartly sunny.20 mph81%29.15 "HgN/A
9:50 AM41 °FPartly sunny.15 mph87%29.18 "HgN/A
9:20 AM41 °FScattered clouds.17 mph87%29.15 "HgN/A
8:50 AM41 °FPartly sunny.16 mph87%29.15 "HgN/A
8:20 AM43 °FPassing clouds.17 mph87%29.15 "HgN/A
Weather by CustomWeather, © 2014

See weather overviewHow to use our weather pages